Flag for Brazil Weather past 2 weeks in Salvador, Bahia, Brazil

Now
75 °F

Clear.


Feels Like: 76 °F
Forecast: N/A
Wind: 10 mph from East

Location: Salvador Aeroporto

Current Time: Sep 4, 2015 at 6:50:19 PM

Latest Report: Sep 4, 2015 at 6:00 PM


Visibility: 10 mi

Pressure: 29.98 "Hg

Humidity: 78%

Dew point: 68 °F

Location of SalvadorLocation

Historic Weather in Salvador — Graph

°F

Salvador temperature yesterday

Maximum temperature yesterday: 81 °F (at 9:00 AM)
Minimum temperature yesterday: 73 °F (at 7:00 PM)
Average temperature yesterday: 77 °F

Past Weeks' High & Low Weather Summary

 TemperatureHumidityPressure
High82 °F (Aug 21, 11:00 AM)100% (Aug 25, 8:00 AM)30.15 "Hg (Aug 25, 8:00 AM)
Low66 °F (Aug 25, 5:00 AM)54% (Sep 3, 3:00 PM)29.95 "Hg (Aug 20, 5:00 PM)
Average76 °F73%30.03 "Hg
* Reported Aug 20 5:00 PM — Sep 4 5:00 PM, Salvador, Weather by CustomWeather, © 2015

Note: Actual official high and low records may vary slightly from our data, if they occured in-between our weather recording intervals... More about our weather records

Advertising

Salvador weather history for previous 24 hours

 ConditionsComfort  
Time TempWeatherWind HumidityBarometerVisibility
5:00 PM
Fri, Sep 4
77 °FSunny.12 mph74%29.98 "Hg10 mi
4:00 PM79 °FSunny.12 mph70%29.95 "Hg10 mi
3:00 PM81 °FSunny.9 mph66%29.95 "Hg10 mi
2:00 PM82 °FPassing clouds.10 mph66%29.98 "HgN/A
1:00 PM81 °FPassing clouds.9 mph66%29.98 "HgN/A
12:00 PM81 °FScattered clouds.10 mph66%30.01 "HgN/A
11:00 AM81 °FScattered clouds.9 mph66%30.04 "HgN/A
10:00 AM81 °FScattered clouds.10 mph66%30.07 "HgN/A
9:00 AM82 °FScattered clouds.6 mph58%30.07 "HgN/A
8:00 AM79 °FPassing clouds.3 mph65%30.07 "HgN/A
7:00 AM73 °FPassing clouds.1 mph78%30.04 "HgN/A
6:00 AM66 °FPassing clouds.2 mph88%30.01 "HgN/A
5:00 AM66 °FPassing clouds.2 mph88%30.01 "HgN/A
4:00 AM66 °FPassing clouds.2 mph88%29.98 "HgN/A
3:00 AM68 °FPassing clouds.2 mph83%30.01 "HgN/A
2:00 AM73 °FPassing clouds.3 mph74%30.01 "HgN/A
1:00 AM75 °FPassing clouds.5 mph69%30.04 "HgN/A
12:00 AM75 °FPassing clouds.6 mph69%30.04 "HgN/A
11:00 PM
Thu, Sep 3
75 °FPassing clouds.6 mph69%30.04 "HgN/A
10:00 PM75 °FPassing clouds.5 mph69%30.04 "HgN/A
9:00 PM75 °FClear.5 mph69%30.04 "Hg10 mi
8:00 PM75 °FClear.6 mph69%30.01 "Hg10 mi
7:00 PM73 °FPassing clouds.6 mph74%30.01 "HgN/A
6:00 PM75 °FPassing clouds.5 mph65%30.01 "HgN/A
Weather by CustomWeather, © 2015

See weather overviewHow to use our weather pages